Nocc Pamplona — LALG5 — position and weather

sailwx.info

Track history (hours):
 
Tides and Currents Weather Stations Pressure Air Temp Water Temp Dewpoint Dewpoint Depression Visibility Wind Speed Wind Dir Waves Ship Positions

Nocc Pamplona

Last reported at 2014-Jul-25 09:33 UTC. Time now 2014-Jul-29 21:04 UTC.
Position N 34°44' E 139°33'.

Length 177 m; draft 7.1 m.

Type: Cargo ship. MMSI: 257349000.

Date/timePositionNaut miles runAvg speedWind from/ knotsBaromVisibWave heightAir tempDewpointWater temp
2014-Jul-25 09:33N 34°44' E 139°33'1616.6
2014-Jul-25 08:33N 34°59' E 139°41'1414.2
2014-Jul-25 07:33N 35°12' E 139°46'1211.5
2014-Jul-25 06:33N 35°23' E 139°42'4 3.9
2014-Jul-25 05:33N 35°27' E 139°41'0 0.0
2014-Jul-25 04:33N 35°27' E 139°41'0 0.0
2014-Jul-25 03:33N 35°27' E 139°41'0 0.0
2014-Jul-25 02:32N 35°27' E 139°41'0 0.0
2014-Jul-25 01:33N 35°27' E 139°41'0 0.0
2014-Jul-25 00:33N 35°27' E 139°41'0 0.0
2014-Jul-24 23:33N 35°27' E 139°41'0 0.0
2014-Jul-24 22:33N 35°27' E 139°41'0 0.0
2014-Jul-24 21:33N 35°27' E 139°41'0 0.0
2014-Jul-24 20:33N 35°27' E 139°41'0 0.0
2014-Jul-24 19:32N 35°27' E 139°41'0 0.0
2014-Jul-24 18:32N 35°27' E 139°41'0 0.0
2014-Jul-24 17:33N 35°27' E 139°41'0 0.0
2014-Jul-24 16:33N 35°27' E 139°41'0 0.0
2014-Jul-24 15:33N 35°27' E 139°41'0 0.0
2014-Jul-24 14:33N 35°27' E 139°41'0 0.0
2014-Jul-24 13:33N 35°27' E 139°41'0 0.0
2014-Jul-24 12:33N 35°27' E 139°41'0 0.0
2014-Jul-24 11:33N 35°27' E 139°41'0 0.0
2014-Jul-24 10:30N 35°27' E 139°41'0 0.0
2014-Jul-24 09:32N 35°27' E 139°41'0 0.0
2014-Jul-24 08:33N 35°27' E 139°41'0 0.0
2014-Jul-24 07:32N 35°27' E 139°41'0 0.0
2014-Jul-24 06:32N 35°27' E 139°41'0 0.0
2014-Jul-24 05:33N 35°27' E 139°41'2 1.8
2014-Jul-24 04:33N 35°25' E 139°41'0 0.0
2014-Jul-24 03:32N 35°25' E 139°41'0 0.0
2014-Jul-24 02:32N 35°25' E 139°41'0 0.0
2014-Jul-24 01:32N 35°25' E 139°41'0 0.0
2014-Jul-24 00:32N 35°25' E 139°41'0 0.0
2014-Jul-23 23:32N 35°25' E 139°41'0 0.0
2014-Jul-23 22:33N 35°25' E 139°41'1 1.4
2014-Jul-23 21:33N 35°25' E 139°42'0 0.0
2014-Jul-23 20:33N 35°25' E 139°42'0 0.1
2014-Jul-23 19:33N 35°25' E 139°42'0 0.1
2014-Jul-23 18:33N 35°25' E 139°42'0 0.0
2014-Jul-23 17:33N 35°25' E 139°42'0 0.0
2014-Jul-23 16:33N 35°25' E 139°42'0 0.0
2014-Jul-23 15:33N 35°25' E 139°42'0 0.0
2014-Jul-23 14:33N 35°25' E 139°42'0 0.0
2014-Jul-23 13:33N 35°25' E 139°42'0 0.1
2014-Jul-23 12:33N 35°25' E 139°42'0 0.1
2014-Jul-23 11:33N 35°25' E 139°42'0 0.0
2014-Jul-23 10:33N 35°25' E 139°42'0 0.0
2014-Jul-23 09:33N 35°25' E 139°42'0 0.0
2014-Jul-23 08:33N 35°25' E 139°42'0 0.0
2014-Jul-23 07:33N 35°25' E 139°42'0 0.0
2014-Jul-23 06:33N 35°25' E 139°42'0 0.1
2014-Jul-23 05:33N 35°25' E 139°42'0 0.0
2014-Jul-23 04:33N 35°25' E 139°42'0 0.0
2014-Jul-23 03:30N 35°25' E 139°42'0 0.0
2014-Jul-23 02:27N 35°25' E 139°42'0 0.1
2014-Jul-23 01:33N 35°25' E 139°42'0 0.1
2014-Jul-23 00:33N 35°25' E 139°42'0 0.0
2014-Jul-22 23:33N 35°25' E 139°42'1010.1
2014-Jul-22 22:33N 35°16' E 139°47'9 8.8
2014-Jul-22 21:33N 35°07' E 139°46'7 7.5
2014-Jul-22 20:33N 34°60' E 139°43'8 8.3
2014-Jul-22 19:33N 34°51' E 139°41'8 8.4
2014-Jul-22 18:33N 34°44' E 139°38'10 9.2
2014-Jul-22 17:30N 34°35' E 139°32'  
Track history (hours):
 
Tides and Currents Weather Stations Pressure Air Temp Water Temp Dewpoint Dewpoint Depression Visibility Wind Speed Wind Dir Waves Ship Positions

Nocc Pamplona

Last reported at 2014-Jul-25 09:33 UTC. Time now 2014-Jul-29 21:04 UTC.
Position N 34°44' E 139°33'.

Length 177 m; draft 7.1 m.

Type: Cargo ship. MMSI: 257349000.

Date/timePositionNaut miles runAvg speedWind from/ knotsBaromVisibWave heightAir tempDewpointWater temp
2014-Jul-25 09:33N 34°44' E 139°33'1616.6
2014-Jul-25 08:33N 34°59' E 139°41'1414.2
2014-Jul-25 07:33N 35°12' E 139°46'1211.5
2014-Jul-25 06:33N 35°23' E 139°42'4 3.9
2014-Jul-25 05:33N 35°27' E 139°41'0 0.0
2014-Jul-25 04:33N 35°27' E 139°41'0 0.0
2014-Jul-25 03:33N 35°27' E 139°41'0 0.0
2014-Jul-25 02:32N 35°27' E 139°41'0 0.0
2014-Jul-25 01:33N 35°27' E 139°41'0 0.0
2014-Jul-25 00:33N 35°27' E 139°41'0 0.0
2014-Jul-24 23:33N 35°27' E 139°41'0 0.0
2014-Jul-24 22:33N 35°27' E 139°41'0 0.0
2014-Jul-24 21:33N 35°27' E 139°41'0 0.0
2014-Jul-24 20:33N 35°27' E 139°41'0 0.0
2014-Jul-24 19:32N 35°27' E 139°41'0 0.0
2014-Jul-24 18:32N 35°27' E 139°41'0 0.0
2014-Jul-24 17:33N 35°27' E 139°41'0 0.0
2014-Jul-24 16:33N 35°27' E 139°41'0 0.0
2014-Jul-24 15:33N 35°27' E 139°41'0 0.0
2014-Jul-24 14:33N 35°27' E 139°41'0 0.0
2014-Jul-24 13:33N 35°27' E 139°41'0 0.0
2014-Jul-24 12:33N 35°27' E 139°41'0 0.0
2014-Jul-24 11:33N 35°27' E 139°41'0 0.0
2014-Jul-24 10:30N 35°27' E 139°41'0 0.0
2014-Jul-24 09:32N 35°27' E 139°41'0 0.0
2014-Jul-24 08:33N 35°27' E 139°41'0 0.0
2014-Jul-24 07:32N 35°27' E 139°41'0 0.0
2014-Jul-24 06:32N 35°27' E 139°41'0 0.0
2014-Jul-24 05:33N 35°27' E 139°41'2 1.8
2014-Jul-24 04:33N 35°25' E 139°41'0 0.0
2014-Jul-24 03:32N 35°25' E 139°41'0 0.0
2014-Jul-24 02:32N 35°25' E 139°41'0 0.0
2014-Jul-24 01:32N 35°25' E 139°41'0 0.0
2014-Jul-24 00:32N 35°25' E 139°41'0 0.0
2014-Jul-23 23:32N 35°25' E 139°41'0 0.0
2014-Jul-23 22:33N 35°25' E 139°41'1 1.4
2014-Jul-23 21:33N 35°25' E 139°42'0 0.0
2014-Jul-23 20:33N 35°25' E 139°42'0 0.1
2014-Jul-23 19:33N 35°25' E 139°42'0 0.1
2014-Jul-23 18:33N 35°25' E 139°42'0 0.0
2014-Jul-23 17:33N 35°25' E 139°42'0 0.0
2014-Jul-23 16:33N 35°25' E 139°42'0 0.0
2014-Jul-23 15:33N 35°25' E 139°42'0 0.0
2014-Jul-23 14:33N 35°25' E 139°42'0 0.0
2014-Jul-23 13:33N 35°25' E 139°42'0 0.1
2014-Jul-23 12:33N 35°25' E 139°42'0 0.1
2014-Jul-23 11:33N 35°25' E 139°42'0 0.0
2014-Jul-23 10:33N 35°25' E 139°42'0 0.0
2014-Jul-23 09:33N 35°25' E 139°42'0 0.0
2014-Jul-23 08:33N 35°25' E 139°42'0 0.0
2014-Jul-23 07:33N 35°25' E 139°42'0 0.0
2014-Jul-23 06:33N 35°25' E 139°42'0 0.1
2014-Jul-23 05:33N 35°25' E 139°42'0 0.0
2014-Jul-23 04:33N 35°25' E 139°42'0 0.0
2014-Jul-23 03:30N 35°25' E 139°42'0 0.0
2014-Jul-23 02:27N 35°25' E 139°42'0 0.1
2014-Jul-23 01:33N 35°25' E 139°42'0 0.1
2014-Jul-23 00:33N 35°25' E 139°42'0 0.0
2014-Jul-22 23:33N 35°25' E 139°42'1010.1
2014-Jul-22 22:33N 35°16' E 139°47'9 8.8
2014-Jul-22 21:33N 35°07' E 139°46'7 7.5
2014-Jul-22 20:33N 34°60' E 139°43'8 8.3
2014-Jul-22 19:33N 34°51' E 139°41'8 8.4
2014-Jul-22 18:33N 34°44' E 139°38'10 9.2
2014-Jul-22 17:30N 34°35' E 139°32'  

Dump ship's entire track history